[[{"header":{"parameterUnit":"m.s-1","parameterCategory":1,"la1":30.2991,"la2":30.254,"lo1":-89.0895,"lo2":-89.0444,"dy":0.0017,"dx":0.0017,"nx":28,"ny":28,"refTime":"2025-11-27T03:00:00:Z","depth":0,"parameterNumber":2,"parameterNumberName":"U-component_of_WINDS"},"data":[0,0,0,0,0,0,0,0,0,0,0,0,0,0,0,0,0,0,0,0,0,0,0,0,0,0,0,0,0,0,0,0,0,0,0,0,0,0,0,0,0,0,0,0,0,0,0,0,0,0,0,0,0,0,0,0,0,0,1.0187,1.0187,0,1.0167,1.0167,1.0167,1.0158,1.0158,1.0158,1.0158,1.0136,1.0136,1.0135,0,0,0,0,0,0,0,0,0,0,0,0,0,1.0215,1.0214,1.0187,1.0187,1.0186,1.0167,1.0167,1.0167,1.0158,1.0158,1.0158,1.0158,1.0136,1.0136,1.0135,0,0,0,0,0,0,0,0,0,0,0,0,0,1.02,1.0214,1.0187,1.0179,1.0179,1.0168,1.0167,1.0167,1.0158,1.0158,1.0158,1.0158,1.0137,1.0136,1.0135,1.0129,0,0,1.0132,1.0132,0,0,0,0,0,0,0,0,1.0201,1.0199,1.0181,1.018,1.0179,1.0165,1.0169,1.0154,1.0158,1.0165,1.0158,1.0158,1.0146,1.0144,1.014,1.0128,1.0127,1.0132,1.0132,1.0131,1.0131,0,0,0,0,0,0,0,1.0202,1.02,1.0179,1.018,1.0179,1.0177,1.0175,1.0166,1.0156,1.0165,1.0164,1.0162,1.0145,1.0141,1.014,1.0127,1.0132,1.0131,1.0131,1.0131,1.011,1.011,0,0,0,0,0,0,1.0204,1.02,1.018,1.0178,1.019,1.0176,1.0174,1.0169,1.0156,1.0154,1.0162,1.0162,1.0143,1.0141,1.0139,1.0132,1.0131,1.0131,1.013,1.011,1.011,1.011,0,0,0,0,0,0,1.0205,1.0202,1.018,1.0189,1.0186,1.0176,1.0171,1.0169,1.0165,1.0154,1.0152,1.016,1.0143,1.014,1.0132,1.0131,1.013,1.0129,1.011,1.011,1.011,1.0117,0,0,0,0,0,0,1.0206,1.0203,1.02,1.0189,1.0186,1.0174,1.0171,1.0169,1.0164,1.0163,1.0151,1.0149,1.0142,1.0133,1.0131,1.013,1.0129,1.011,1.011,1.011,1.0117,1.0118,1.0118,0,0,0,0,0,1.0207,1.0203,1.02,1.0198,1.0183,1.0174,1.0172,1.0165,1.0164,1.0161,1.0154,1.015,1.0132,1.0133,1.013,1.0128,1.011,1.011,1.011,1.0117,1.0118,1.0118,0,0,0,0,0,0,1.0213,1.0201,1.0198,1.0191,1.0184,1.0172,1.0169,1.0165,1.0158,1.0157,1.0148,1.0146,1.0139,1.0133,1.0134,1.0123,1.0121,1.012,1.0127,1.0127,1.0127,1.0129,1.0128,0,0,0,0,0,1.0214,1.0208,1.0198,1.0192,1.0189,1.018,1.0175,1.0171,1.0162,1.0159,1.0151,1.0143,1.0136,1.0131,1.0124,1.0117,1.0114,1.0114,1.0115,1.0115,1.0114,1.0111,1.0111,1.011,1.011,1.011,0,0,1.0215,1.0208,1.0204,1.0193,1.0187,1.0181,1.0177,1.017,1.0166,1.0158,1.015,1.0144,1.0135,1.0127,1.0124,1.0122,1.0114,1.0115,1.0115,1.0115,1.0111,1.0111,1.0111,1.011,1.011,1.011,0,0,1.0213,1.0207,1.0202,1.0197,1.0188,1.0182,1.0181,1.0171,1.0167,1.0159,1.0153,1.0147,1.0135,1.0129,1.0124,1.0122,1.0117,1.012,1.0121,1.0118,1.0118,1.0118,1.0117,1.0117,1.0119,1.0119,1.0119,0,1.0216,1.0206,1.02,1.0194,1.0189,1.0183,1.0178,1.0173,1.0162,1.0158,1.0157,1.0142,1.0135,1.0126,1.0126,1.0122,1.0121,1.012,1.0118,1.0118,1.0118,1.0117,1.0117,1.0119,1.0119,1.0119,1.0119,0,1.021,1.0203,1.02,1.0191,1.0186,1.018,1.0173,1.0169,1.0165,1.0159,1.0152,1.0144,1.0135,1.0132,1.0128,1.0123,1.0123,1.012,1.0118,1.0119,1.0118,1.0117,1.012,1.012,1.012,1.012,0,0,1.021,1.0198,1.0197,1.0193,1.0184,1.0179,1.0173,1.0165,1.0162,1.0155,1.015,1.014,1.0138,1.0133,1.0128,1.0125,1.0124,1.0123,1.0122,1.0123,1.0118,1.012,1.012,1.0121,1.0121,1.0121,1.0119,0,1.0208,1.0198,1.0192,1.0184,1.0179,1.0174,1.0169,1.0162,1.0157,1.0152,1.0146,1.014,1.0137,1.0134,1.0131,1.0125,1.0123,1.0125,1.0116,1.0116,1.0118,1.0119,1.0121,1.0119,1.0119,1.0119,1.0119,0,1.0202,1.0196,1.0188,1.018,1.0178,1.0173,1.0166,1.0161,1.0154,1.0151,1.0145,1.0141,1.0135,1.0134,1.0126,1.0127,1.0123,1.012,1.012,1.0118,1.0117,1.0117,1.0118,1.0118,1.0118,1.0118,1.0118,0,1.0204,1.0194,1.0188,1.0184,1.0175,1.0172,1.0168,1.0161,1.0157,1.015,1.0148,1.0141,1.0137,1.0131,1.0125,1.0125,1.0117,1.0116,1.0114,1.0114,1.0112,1.0112,1.0112,1.0111,1.0111,1.0111,1.0111,0,1.0201,1.0196,1.0188,1.0184,1.0179,1.0173,1.0168,1.0163,1.0157,1.0153,1.0148,1.0143,1.0136,1.013,1.0126,1.012,1.0118,1.0115,1.0113,1.0115,1.0115,1.0112,1.0112,1.0111,1.0111,1.0111,1.0111,0,1.0201,1.0196,1.0189,1.0181,1.0179,1.0175,1.0168,1.0164,1.016,1.0154,1.0152,1.0145,1.0138,1.0132,1.0123,1.012,1.0114,1.0112,1.0117,1.0116,1.0115,1.0115,1.0112,1.0111,1.0111,1.0111,1.0111,0,1.0199,1.0195,1.0187,1.0184,1.018,1.0175,1.0171,1.0166,1.0162,1.0154,1.0151,1.0145,1.0139,1.0129,1.0123,1.0116,1.0114,1.0114,1.0113,1.0115,1.0114,1.0114,1.0114,1.0114,1.0114,1.0114,1.0114,0,1.0196,1.0194,1.0189,1.0183,1.0179,1.0174,1.0168,1.0166,1.0159,1.0155,1.0149,1.0145,1.0137,1.013,1.0123,1.0119,1.0115,1.0115,1.0114,1.0115,1.0117,1.0116,1.0117,1.0114,1.0114,1.0114,1.0114,1.0114,1.0195,1.0192,1.0186,1.018,1.0176,1.0172,1.0168,1.0163,1.0158,1.0151,1.0149,1.0142,1.0136,1.0127,1.0123,1.0118,1.0117,1.0116,1.0115,1.0115,1.0115,1.0119,1.0116,1.0116,1.0116,1.0116,1.0116,0,1.0191,1.0188,1.0183,1.0176,1.0172,1.017,1.0165,1.0161,1.0156,1.0151,1.0146,1.0139,1.0134,1.0127,1.0121,1.0119,1.0117,1.0117,1.0117,1.0116,1.0116,1.0118,1.0119,1.0119,1.0119,1.0119,1.0119,1.0119,1.0189,1.0184,1.0181,1.0174,1.017,1.0164,1.0161,1.0157,1.0153,1.0146,1.0142,1.0138,1.0133,1.0126,1.0121,1.0119,1.0117,1.0118,1.0116,1.0116,1.0116,1.0116,1.0117,1.0117,1.0117,1.0115,1.0115,1.0115]},{"header":{"parameterUnit":"m.s-1","parameterCategory":1,"la1":30.2991,"la2":30.254,"lo1":-89.0895,"lo2":-89.0444,"dy":0.0017,"dx":0.0017,"nx":28,"ny":28,"refTime":"2025-11-27T03:00:00:Z","depth":0,"parameterNumber":3,"parameterNumberName":"V-component_of_WINDS"},"data":[0,0,0,0,0,0,0,0,0,0,0,0,0,0,0,0,0,0,0,0,0,0,0,0,0,0,0,0,0,0,0,0,0,0,0,0,0,0,0,0,0,0,0,0,0,0,0,0,0,0,0,0,0,0,0,0,0,0,-7.2779,-7.278,0,-7.2918,-7.2919,-7.2921,-7.2829,-7.2824,-7.282,-7.2816,-7.2953,-7.296,-7.2967,0,0,0,0,0,0,0,0,0,0,0,0,0,-7.2429,-7.2436,-7.2779,-7.278,-7.2782,-7.2917,-7.2919,-7.2921,-7.2829,-7.2824,-7.2819,-7.2814,-7.295,-7.2959,-7.2968,0,0,0,0,0,0,0,0,0,0,0,0,0,-7.2576,-7.2438,-7.2778,-7.2753,-7.2752,-7.2917,-7.2919,-7.2922,-7.283,-7.2824,-7.2818,-7.2812,-7.2947,-7.2958,-7.2969,-7.3166,0,0,-7.3004,-7.3009,0,0,0,0,0,0,0,0,-7.2567,-7.2588,-7.2755,-7.2755,-7.2754,-7.2849,-7.2846,-7.3003,-7.2832,-7.28,-7.2816,-7.2809,-7.2923,-7.2936,-7.2976,-7.3172,-7.3178,-7.3005,-7.3012,-7.3017,-7.302,0,0,0,0,0,0,0,-7.2557,-7.2582,-7.2833,-7.2757,-7.2757,-7.2733,-7.2747,-7.2875,-7.2895,-7.2803,-7.2796,-7.2814,-7.2922,-7.2965,-7.2978,-7.318,-7.3005,-7.3015,-7.3022,-7.3026,-7.3545,-7.3552,0,0,0,0,0,0,-7.255,-7.2574,-7.2829,-7.2838,-7.2643,-7.2744,-7.276,-7.2825,-7.2894,-7.2898,-7.282,-7.281,-7.2949,-7.2965,-7.2983,-7.3218,-7.3017,-7.3027,-7.3034,-7.3538,-7.3547,-7.3554,0,0,0,0,0,0,-7.2543,-7.2574,-7.2823,-7.2704,-7.2734,-7.2757,-7.2831,-7.2831,-7.2875,-7.2907,-7.2909,-7.2861,-7.2944,-7.2967,-7.3122,-7.3221,-7.3032,-7.3043,-7.353,-7.3541,-7.355,-7.369,0,0,0,0,0,0,-7.2533,-7.2572,-7.2648,-7.2707,-7.2741,-7.2962,-7.2837,-7.2838,-7.2895,-7.2883,-7.2946,-7.295,-7.2941,-7.3105,-7.3133,-7.3234,-7.3052,-7.3521,-7.3535,-7.3547,-7.3677,-7.3704,-7.3727,0,0,0,0,0,-7.2521,-7.268,-7.2652,-7.2683,-7.2837,-7.2968,-7.2987,-7.2976,-7.2904,-7.2979,-7.3,-7.2948,-7.3206,-7.3122,-7.3152,-7.3258,-7.3515,-7.3531,-7.3546,-7.3665,-7.3699,-7.3727,0,0,0,0,0,0,-7.2629,-7.2687,-7.2657,-7.284,-7.29,-7.2952,-7.3048,-7.3011,-7.3092,-7.3077,-7.3057,-7.3072,-7.3234,-7.3261,-7.3166,-7.3452,-7.3349,-7.3371,-7.3429,-7.3461,-7.3486,-7.3476,-7.3061,0,0,0,0,0,-7.2675,-7.2779,-7.2822,-7.2979,-7.3012,-7.3025,-7.3081,-7.3068,-7.3128,-7.3153,-7.3184,-7.3244,-7.3338,-7.3401,-7.3489,-7.368,-7.3692,-7.3767,-7.3793,-7.3813,-7.3833,-7.3937,-7.3971,-7.3606,-7.3606,-7.3605,0,0,-7.2769,-7.2814,-7.288,-7.3003,-7.3047,-7.3154,-7.3047,-7.3163,-7.3242,-7.3169,-7.3319,-7.3344,-7.3409,-7.3583,-7.3661,-7.361,-7.3937,-7.3833,-7.385,-7.3858,-7.3957,-7.3991,-7.4022,-7.3617,-7.3615,-7.3613,0,0,-7.2996,-7.304,-7.3177,-7.3225,-7.3295,-7.3303,-7.3336,-7.3395,-7.341,-7.3559,-7.3508,-7.36,-7.3763,-7.3811,-7.3858,-7.4105,-7.406,-7.4134,-7.4267,-7.4368,-7.4397,-7.4422,-7.4511,-7.4543,-7.4153,-7.4154,-7.4154,0,-7.3104,-7.3265,-7.3251,-7.3373,-7.3428,-7.337,-7.3508,-7.3554,-7.3649,-7.3688,-7.363,-7.3835,-7.3874,-7.4059,-7.412,-7.4159,-7.4195,-7.4127,-7.4394,-7.4419,-7.4443,-7.4527,-7.4561,-7.4162,-7.4161,-7.416,-7.416,0,-7.3394,-7.3506,-7.3608,-7.3704,-7.3771,-7.39,-7.3904,-7.3973,-7.3954,-7.3967,-7.4121,-7.4166,-7.4264,-7.4306,-7.4287,-7.4489,-7.4456,-7.4397,-7.4293,-7.4487,-7.4566,-7.4598,-7.4175,-7.4171,-7.4169,-7.4167,0,0,-7.3693,-7.3782,-7.3819,-7.3863,-7.3937,-7.4022,-7.4148,-7.4246,-7.4306,-7.4373,-7.4478,-7.4618,-7.4564,-7.4617,-7.4602,-7.4691,-7.4886,-7.4621,-7.4622,-7.4669,-7.5112,-7.5157,-7.5195,-7.4856,-7.4862,-7.4867,-7.5107,0,-7.3925,-7.4148,-7.414,-7.4347,-7.445,-7.4397,-7.4506,-7.4563,-7.458,-7.4668,-7.4685,-7.4785,-7.4706,-7.4738,-7.4823,-7.4844,-7.4974,-7.4826,-7.4953,-7.4958,-7.494,-7.5236,-7.5284,-7.5508,-7.5138,-7.5143,-7.5147,0,-7.4226,-7.4307,-7.4525,-7.4585,-7.4628,-7.4727,-7.4817,-7.4903,-7.4965,-7.4971,-7.5031,-7.5003,-7.5129,-7.5022,-7.5195,-7.5095,-7.5146,-7.5164,-7.5173,-7.5185,-7.5065,-7.5257,-7.5579,-7.5614,-7.5195,-7.5191,-7.5188,0,-7.4424,-7.4586,-7.4738,-7.4777,-7.4851,-7.4922,-7.4955,-7.5012,-7.5072,-7.5149,-7.5188,-7.5278,-7.5327,-7.5397,-7.5394,-7.5316,-7.557,-7.5462,-7.5578,-7.5579,-7.5635,-7.5631,-7.5971,-7.5666,-7.5666,-7.5665,-7.5664,0,-7.4684,-7.482,-7.4829,-7.4922,-7.5073,-7.5061,-7.521,-7.5236,-7.5287,-7.5384,-7.5342,-7.5433,-7.5423,-7.5514,-7.5512,-7.5657,-7.5679,-7.5687,-7.5684,-7.5691,-7.5691,-7.5725,-7.571,-7.5674,-7.5672,-7.567,-7.5669,0,-7.4931,-7.4942,-7.5104,-7.5162,-7.5179,-7.5288,-7.5336,-7.5424,-7.5437,-7.556,-7.5588,-7.5608,-7.5714,-7.5718,-7.5838,-7.5836,-7.6014,-7.5993,-7.5994,-7.599,-7.6106,-7.6096,-7.6481,-7.6531,-7.6193,-7.6196,-7.6199,0,-7.5097,-7.5201,-7.527,-7.5333,-7.5372,-7.5473,-7.5535,-7.5527,-7.5593,-7.5673,-7.5752,-7.5854,-7.5936,-7.6107,-7.6131,-7.6223,-7.6205,-7.6334,-7.6219,-7.6223,-7.6209,-7.6203,-7.6214,-7.6357,-7.636,-7.6363,-7.6366,0,-7.5391,-7.5392,-7.5483,-7.5578,-7.5653,-7.5726,-7.5794,-7.5847,-7.5847,-7.5923,-7.6032,-7.6095,-7.622,-7.6322,-7.6412,-7.6444,-7.6406,-7.6402,-7.6434,-7.6442,-7.6439,-7.6444,-7.6056,-7.6393,-7.6391,-7.6389,-7.6387,-7.6386,-7.5603,-7.5694,-7.5757,-7.5861,-7.5912,-7.5976,-7.6063,-7.6088,-7.6179,-7.6282,-7.6271,-7.6393,-7.6453,-7.657,-7.661,-7.6704,-7.6659,-7.6705,-7.6717,-7.6729,-7.6742,-7.6424,-7.672,-7.6719,-7.6718,-7.6718,-7.6717,0,-7.5896,-7.5935,-7.6031,-7.6128,-7.621,-7.6168,-7.6241,-7.6312,-7.642,-7.648,-7.6563,-7.6688,-7.6787,-7.682,-7.6916,-7.6985,-7.697,-7.701,-7.7006,-7.7014,-7.6776,-7.6739,-7.7021,-7.7021,-7.7021,-7.7021,-7.7021,-7.7021,-7.6059,-7.621,-7.6219,-7.6395,-7.6431,-7.6552,-7.6598,-7.6657,-7.6706,-7.6849,-7.6932,-7.6953,-7.7003,-7.7102,-7.7191,-7.7198,-7.7235,-7.7284,-7.7284,-7.7061,-7.703,-7.7001,-7.6967,-7.7292,-7.7292,-7.7514,-7.7516,-7.7518]}]]